Regional Weather Roundup
Issued by NWS

Home | Current Version | Previous Version | Graphics & Text | Print | Product List | Glossary On
Versions: 1 2 3 4 5 6 7 8 9 10 11 12 13 14 15 16 17 18 19 20 21 22 23 24 25 26 27 28 29 30 31 32 33 34 35 36 37 38 39 40 41 42 43 44 45 46 47 48 49 50
000
ASUS43 KOAX 261210
RWRNE

WEATHER ROUNDUP FOR NEBRASKA
NATIONAL WEATHER SERVICE OMAHA NE
700 AM CDT WED APR 26 2017

NOTES: SATELLITE DATA IS BEING USED TO AUGMENT CLOUD COVER ABOVE
       12000 FEET.
       "FAIR" INDICATES FEW OR NO CLOUDS BELOW 12,000 FEET WITH NO
       SIGNIFICANT WEATHER AND/OR OBSTRUCTIONS TO VISIBILITY.

  * THESE STATIONS DO NOT REPORT WEATHER SUCH AS RAIN...SNOW OR FOG.

NEZ001>004-019>022-054>056-261300-
NEBRASKA PANHANDLE

CITY           SKY/WX    TMP DP  RH WIND       PRES   REMARKS
SCOTTSBLUFF    CLOUDY    32  26  78 N3        29.85R
6HR MIN TEMP:  31; 6HR MAX TEMP:  33;

ALLIANCE       CLOUDY    28  25  88 NW14      29.82S WCI  17
6HR MIN TEMP:  27; 6HR MAX TEMP:  28;

CHADRON        CLOUDY    30  26  85 N6        29.87R WCI  24
6HR MIN TEMP:  28; 6HR MAX TEMP:  30;

KIMBALL        CLOUDY    31  29  93 NW13      29.81S WCI  21
SIDNEY         MOCLDY    30  26  85 N14       29.81S WCI  19
6HR MIN TEMP:  27; 6HR MAX TEMP:  31;

$$

NEZ057>060-069>072-079>082-261300-
SOUTHWEST NEBRASKA

CITY           SKY/WX    TMP DP  RH WIND       PRES   REMARKS
NORTH PLATTE   CLOUDY    33  25  72 N17G23    29.81R WCI  22
6HR MIN TEMP:  31; 6HR MAX TEMP:  35; 6HR PCP: TRACE;

IMPERIAL       PTCLDY    28  24  85 NW12      29.83R WCI  18
6HR MIN TEMP:  28; 6HR MAX TEMP:  35;

LEXINGTON      CLOUDY    33  27  77 N16       29.78S WCI  23
MCCOOK         CLOUDY    34  26  72 NW17G23   29.80F WCI  23
6HR MIN TEMP:  33; 6HR MAX TEMP:  37;

OGALLALA       CLOUDY    33  28  80 NW18      29.82R WCI  22
$$

NEZ005>010-023>029-035>040-094-261300-
NORTH CENTRAL NEBRASKA

CITY           SKY/WX    TMP DP  RH WIND       PRES   REMARKS
VALENTINE      CLOUDY    32  25  75 NW15G24   29.82R WCI  22
6HR MIN TEMP:  31; 6HR MAX TEMP:  32; 6HR PCP: TRACE;

AINSWORTH      CLOUDY    31  29  93 NW17      29.79R WCI  19
BROKEN BOW     CLOUDY    32  25  75 N23       29.76R WCI  19
6HR MIN TEMP:  32; 6HR MAX TEMP:  34;

O`NEILL        CLOUDY    32  29  89 NW21      29.75R WCI  20
ORD            CLOUDY    32  27  81 NW20G28   29.75R WCI  20
6HR MIN TEMP:  32; 6HR MAX TEMP:  35; 6HR PCP: TRACE;

THEDFORD       CLOUDY    32  27  82 NW21G26   29.80R WCI  20
$$

NEZ041-046>049-061>064-073>077-083>087-261300-
SOUTH CENTRAL NEBRASKA

CITY           SKY/WX    TMP DP  RH WIND       PRES   REMARKS
GRAND ISLAND   CLOUDY    34  30  85 NW16G24   29.74S WCI  24
6HR MIN TEMP:  34; 6HR MAX TEMP:  37;

AURORA         CLOUDY    34  31  87 NW18G30   29.72S WCI  23
HASTINGS       CLOUDY    35  29  78 N23       29.73F WCI  23
6HR MIN TEMP:  35; 6HR MAX TEMP:  38;

HEBRON         CLOUDY    37  31  81 N20G30    29.70S WCI  26
HOLDREGE       CLOUDY    32  28  82 NW13G22   29.76S WCI  23
KEARNEY *      CLOUDY    34  25  69 NW14G22   29.75F WCI  24
YORK           CLOUDY    36  32  87 NW23G30   29.71R WCI  24
$$

NEZ011>018-030>034-042>045-261300-
NORTHEAST NEBRASKA

CITY           SKY/WX    TMP DP  RH WIND       PRES   REMARKS
NORFOLK        CLOUDY    33  28  81 NW24G35   29.69R WCI  20
6HR MIN TEMP:  33; 6HR MAX TEMP:  35;

ALBION         CLOUDY    34  29  83 NW23G32   29.72R WCI  22
BLAIR          CLOUDY    36  33  90 NW18G29   29.63R WCI  25
FREMONT        CLOUDY    36  32  87 NW21G29   29.67R WCI  24
TEKAMAH        CLOUDY    36  32  85 NW22G28   29.64F WCI  25
6HR MIN TEMP:  36; 6HR MAX TEMP:  40; 6HR PCP: TRACE;

WAYNE          CLOUDY    33  33  97 NW17G25   29.68R WCI  22
$$

NEZ050>053-065>068-078-088>093-261300-
SOUTHEAST NEBRASKA

CITY           SKY/WX    TMP DP  RH WIND       PRES   REMARKS
LINCOLN        CLOUDY    38  31  76 NW18G28   29.69R WCI  28
6HR MIN TEMP:  38; 6HR MAX TEMP:  40;

OMAHA EPPLEY   CLOUDY    37  32  82 NW24G30   29.63R WCI  26
6HR MIN TEMP:  37; 6HR MAX TEMP:  42; 6HR PCP: TRACE;

BEATRICE       CLOUDY    38  33  82 NW23      29.68R WCI  27
FALLS CITY     CLOUDY    39  35  86 NW18G26   29.63R WCI  30
6HR MIN TEMP:  39; 6HR MAX TEMP:  45;

NEBRASKA CITY  CLOUDY    37  32  81 N18G26    29.61S WCI  27
PLATTSMOUTH    CLOUDY    37  32  84 NW17G29   29.62R WCI  27
$$

NEZ044-045-051>053-067-261300-
OMAHA AREA

CITY           SKY/WX    TMP DP  RH WIND       PRES   REMARKS
OMAHA EPPLEY   CLOUDY    37  32  82 NW24G30   29.63R WCI  26
6HR MIN TEMP:  37; 6HR MAX TEMP:  42; 6HR PCP: TRACE;

BLAIR          CLOUDY    36  33  90 NW18G29   29.63R WCI  25
FREMONT        CLOUDY    36  32  87 NW21G29   29.67R WCI  24
MILLARD        CLOUDY    38  35  86 NW16G23   29.65R WCI  30
OFFUTT AFB     CLOUDY    37  32  81 NW15G26   29.63R WCI  28
PLATTSMOUTH    CLOUDY    37  32  84 NW17G29   29.62R WCI  27
WAHOO          CLOUDY    36  31  82 NW16G25   29.67R WCI  26
$$




USA.gov is the U.S. government's official web portal to all federal, state and local government web resources and services.